www.pogodaiklimat.ru

Погода и климат >> Архив погоды >> Россия >> Кабардино-Балкария >> Прохладный


ПОГОДА в Прохладный

  • Прогноз погоды в Прохладный
  • Монитор погоды в Прохладный
  • Климат города

АРХИВ ПОГОДЫ в Прохладный

Время (UTC), дата Ветер
(напр.,м/с)
 
Видим.   Явления Облачность Т
(С)
Тd
(С)
f
(%)
Тe
(С)
Тes
(С)
Комфортность P
(гПа)
Po
(гПа)
Тmin
(С)
Tmax
(С)
R
(мм)
R24
(мм)
S
(см)
21 12.11 СВ 2 4000 м дымка 10/10 600 м
[Sc]
+0.4 +0.2 99 -3 -3 1031.1 1005.7
00 13.11 С 1 4000 м дымка 10/10 600 м
[Sc]
-0.3 -0.4 99 -3 -3 1030.1 1004.7
03 13.11 СЗ 1 2000 м дымка 10/10 600 м
[Sc]
-0.2 -0.3 99 -2 -2 1029.4 1004.0 -0.4
06 13.11 Ю 1 4000 м в посл. час морось 10/10 600 м
[Sc]
+0.7 +0.6 99 -1 -1 1029.3 1004.0
09 13.11 СВ 1 4000 м дымка 10/10 600 м
[Sc]
+3.3 +3.2 99 +2 +2 1028.4 1003.4
12 13.11 С 1 4000 м слабый ливневой дождь 10/10 600 м
[Cb cap]
+4.1 +3.6 97 +2 +2 1028.6 1003.6
15 13.11 ЮЗ 1 4000 м слабый ливневой дождь 10/10 600 м
[Cb cap]
+4.1 +3.8 98 +2 +2 1029.1 1004.2 +4.1 1
18 13.11 ЮЗ 1 4000 м слабый ливневой дождь 10/10 600 м
[Cb cap]
+3.9 +3.7 99 +2 +2 1029.2 1004.2
21 13.11 З 1 4000 м слабый ливневой дождь 10/10 600 м
[Cb cap]
+4.1 +3.9 99 +2 +2 1028.4 1003.5
00 14.11 С 3 4000 м слабый ливневой дождь 10/10 600 м
[Cb cap]
+4.1 +3.9 99 0 0 1027.5 1002.5
03 14.11 СВ 3 4000 м в посл. час ливневой дождь 10/10 600 м
[Cb cap]
+4.9 +4.7 99 +1 +1 1026.6 1001.8 +3.9 6
06 14.11 В 4
{10}
4000 м слабый ливневой дождь 10/10 600 м
[Cb cap]
+5.0 +4.6 97 +1 +1 1026.6 1001.8
09 14.11 В 3 4000 м слабый ливневой дождь 10/10 600 м
[Cb cap]
+5.5 +5.1 97 +2 +2 1025.6 1000.9
12 14.11 В 4 4000 м слабый ливневой дождь 10/10 600 м
[Cb cap]
+5.7 +5.4 98 +2 +2 1024.4 999.7
15 14.11 В 4 4000 м слабый ливневой дождь 10/10 600 м
[Cb cap]
+4.9 +4.6 98 +1 +1 1024.4 999.6 +5.9 5
18 14.11 СВ 4 4000 м в посл. час ливневой дождь 10/10 600 м
[Cb cap]
+4.3 +4.0 98 -0 -0 1024.0 999.2
21 14.11 В 3 4000 м слабый ливневой дождь 10/10 600 м
[Cb cap]
+4.1 +3.8 98 0 0 1022.9 998.1
00 15.11 СВ 2 4000 м слабый ливневой дождь 10/10 600 м
[Cb cap]
+4.2 +4.0 99 +1 +1 1021.0 996.2
03 15.11 СВ 3 4000 м слабый ливневой дождь 10/10 600 м
[Cb cap]
+4.4 +4.2 99 +1 +1 1020.1 995.4 +4.1 5
06 15.11 СВ 2 4000 м дымка {ливн. осадки} 10/10 600 м
[Sc]
+3.5 +3.3 99 0 0 1020.3 995.5 +3.5
09 15.11 С 2 4000 м дымка 10/10 600 м
[Cb cap]
+4.9 +4.6 98 +2 +2 1019.0 994.3
12 15.11 ЮЗ 2 4000 м дымка 10/10 600 м
[Cb cap]
+5.9 +4.8 93 +3 +3 1019.5 994.9
15 15.11 ЮЗ 1 4000 м дымка 10/10 600 м
[Sc]
+5.3 +4.1 92 +4 +4 1020.8 996.1 +6.0 2
18 15.11 ЮЗ 1 4000 м дымка 10/10 600 м
[Sc]
+5.1 +4.4 95 +4 +4 1021.3 996.6
21 15.11 Ю 1 4000 м дымка 10/10 600 м
[Sc]
+4.3 +3.8 97 +3 +3 1021.8 997.0
00 16.11 З 1 2000 м дымка 10/10 600 м
[Sc]
+4.2 +4.0 99 +3 +3 1022.1 997.3
03 16.11 Ю 1 4000 м дымка 10/10 600 м
[Sc]
+3.9 +3.7 99 +2 +2 1022.9 998.1 +3.9
06 16.11 С 2 500 м туман ?/? +4.7 +4.6 99 +2 +2 1023.3 998.5
09 16.11 СЗ 2 4000 м слабый ливневой дождь {туман} 10/10 600 м
[Cb cap]
+5.6 +5.4 99 +3 +3 1023.3 998.6
12 16.11 С 3 4000 м слабый ливневой дождь {туман} 10/10 600 м
[Cb cap]
+5.3 +5.0 98 +2 +2 1023.9 999.2
15 16.11 С 2 4000 м слабый ливневой дождь 10/10
[Cb cap]
+4.3 +4.1 99 +1 +1 1025.3 1000.4 +6.0 2
18 16.11 С 2 4000 м в посл. час ливневой дождь 10/10 600 м
[Cb cap]
+3.0 +2.7 98 -0 -0 1026.1 1001.1
21 16.11 СЗ 1 4000 м слабый ливневой дождь 10/10 600 м
[Cb cap]
+2.7 +2.4 98 +1 +1 1025.8 1000.7
00 17.11 СЗ 2 4000 м дымка {ливн. осадки} 10/10 600 м
[Cb cap]
+2.3 +2.1 99 -1 -1 1025.5 1000.4
03 17.11 СЗ 2 4000 м слабый ливневой дождь 10/10 600 м
[Cb cap]
+2.2 +1.9 98 -1 -1 1026.2 1001.2 +2.2 2
06 17.11 СЗ 1 4000 м дымка {ливн. осадки} 10/10 600 м
[Cb cap]
+2.2 +1.8 97 0 0 1027.5 1002.4 +1.8
09 17.11 СЗ 1 4000 м дымка 10/10 600 м
[Cb cap]
+2.9 +2.1 94 +1 +1 1027.5 1002.5
12 17.11 С 2 4000 м дымка 10/10 600 м
[Sc]
+3.1 +2.0 92 -0 -0 1028.0 1003.0
15 17.11 СЗ 2 4000 м дымка 10/10 600 м
[Sc]
+2.3 +1.3 93 -1 -1 1029.1 1004.0 +3.4 0.3
18 17.11 С 1 4000 м дымка 10/10 600 м
[Sc]
+1.9 +1.0 94 0 0 1028.7 1003.5
21 17.11 С 1 4000 м дымка 10/10 600 м
[Sc]
+1.6 +0.9 95 -0 -0 1027.9 1002.8
00 18.11 штиль 0 4000 м дымка 10/10 600 м
[Sc]
+1.9 +1.1 94 +1 +1 1027.2 1002.0
03 18.11 Ю 1 4000 м дымка 10/10 600 м
[Sc]
+1.8 +1.2 96 -0 -0 1026.3 1001.2 +1.6
06 18.11 ЮЗ 1 4000 м в посл. час ливневой дождь 10/10 600 м
[Cb cap]
+2.4 +2.0 97 +1 +1 1026.1 1001.1
09 18.11 З 1 20 км 10/10 600 м
[Sc]
+5.3 +3.3 87 +4 +4 1025.5 1000.8
12 18.11 С 1 20 км 10/10 600 м
[Sc]
+7.5 +4.4 81 +7 +7 1025.0 1000.5
15 18.11 СВ 1 4000 м дымка 9/9 600 м
[Sc]
+4.3 +3.1 92 +3 +3 1026.2 1001.3 +7.6 0.3
18 18.11 СВ 1 4000 м дымка 10/10 600 м
[Sc]
+3.7 +2.6 93 +2 +2 1026.7 1001.7
21 18.11 С 1 4000 м дымка 10/10 600 м
[Sc]
+2.9 +2.5 97 +1 +1 1026.6 1001.6
00 19.11 В 1 4000 м дымка 10/10 600 м
[Sc]
+2.9 +2.4 97 +1 +1 1026.9 1001.9
03 19.11 СВ 1 4000 м дымка 10/10 600 м
[Sc]
+2.7 +2.3 97 +1 +1 1027.2 1002.2 +2.6
06 19.11 В 2 500 м туман ?/? +2.6 +2.4 99 -1 -1 1027.6 1002.6 +2.0
09 19.11 В 1 4000 м дымка {туман} 10/10 600 м
[Sc]
+2.7 +2.2 97 +1 +1 1027.1 1002.0
12 19.11 В 2 4000 м дымка {туман} 10/10 600 м
[Sc]
+2.8 +2.3 97 -1 -1 1026.2 1001.2
15 19.11 СВ 1 500 м туман ?/? +2.0 +1.8 99 0 0 1026.3 1001.2 +3.0

 

Местоположение метеостанции Прохладный (Кабардино-Балкария, Россия): широта 43.75 долгота 44.05 высота над уровнем моря 200 м.

В архиве по умолчанию представлена погода в Прохладный за последнюю неделю. Архивные данные за месяц целиком и за предыдущие месяцы, начиная с января 2011 года, Вы можете получить, выбрав интересующий диапазон дат из раскрывающегося списка и нажав кнопку "Ввод!".


*Определитесь, кто Вы:
робот инопланетянин человек

Внимание! Время в таблицах - всемирное. Для получения местного времени необходимо прибавить поправку, которая в Прохладный равна 3 ч.

Смотрите также архив погоды в соседних городах и на ближайших метеорологических станциях:

Погода в Нальчике (Кабардино-Балкария, Россия) (42 км)
Погода в Моздоке (Северная Осетия, Россия) (50 км)
Погода в Георгиевске (Ставропольский край, Россия) (64 км)
Погода в Зеленокумске (Ставропольский край, Россия) (77 км)
Погода в Алагире (Северная Осетия, Россия) (77 км)
Погода в Минеральных Водах (Ставропольский край, Россия) (92 км)
Погода в Назрани (Ингушетия, Россия) (93 км)
Погода в Владикавказе (Северная Осетия, Россия) (95 км)
Погода в Тырныаузе (Кабардино-Балкария, Россия) (100 км)
Погода в Рощино (Ставропольский край, Россия) (102 км)

Пояснения к столбцам:

Ветер - указаны скорость ветра в м/с - средняя за 10 мин, порывы в срок и между сроками (в фигурных скобках) и направление, откуда дует ветер: С - северный, СВ - северо-восточный, В - восточный, ЮВ - юго-восточный, Ю - южный, ЮЗ - юго-западный, З - западный, СЗ - северо-западный.
Видимость - горизонтальная дальность видимости в метрах или километрах. При видимости от 1 до 10 км при отсутствии осадков обычно наблюдается дымка, при ухудшении видимости до 1 км и менее - туман. В сухую погоду видимость может ухудшаться дымом, пылью или мглою.
Явления - указаны атмосферные явления, наблюдавшиеся в срок или в последний час перед сроком; фигурными скобками обозначены явления, наблюдавшиеся между сроками (за 1-3 часа до срока); квадратными скобками обозначены град или гололедные отложения с указанием их диаметра в мм.
Облачность - указаны через наклонную черту общая и нижняя облачность в баллах и высота нижней границы облаков в метрах; квадратными скобками обозначены формы облаков: Ci - перистые, Cs - перисто-слоистые, Cc - перисто-кучевые, Ac - высококучевые, As - высокослоистые, Sc - слоисто-кучевые, Ns - слоисто-дождевые, Cu - кучевые, Cb - кучево-дождевые. Подробнее классификацию облаков см. в Атласе облаков (PDF).
T - Температура воздуха - температура, измеренная на высоте 2 м над землей.
Td - Температура точки росы - температура, при понижении до которой содержащийся в воздухе водяной пар достигнет насыщения.
f - Относительная влажность воздуха - влажноcть воздуха, измеренная на высоте 2 м над землей.
Te - Эффективная температура - температура, которую ощущает одетый по сезону человек в тени. Характеристика душности погоды. При расчете учитывается влияние влажности воздуха и скорости ветра на теплоощущения человека.
Tes - Эффективная температура на солнце - температура, которую ощущает человек, с поправкой на солнечный нагрев. Характеристика знойности погоды. Зависит от высоты солнца над горизонтом, облачности и скорости ветра. Ночью, в пасмурную погоду, а также при ветре 12 м/с и более поправка равна нулю.
P - Атмосферное давление - приведенное к уровню моря атмосферное давление.
Po - Атмосферное давление - измеренное на уровне метеостанции атмосферное давление.
Tmin - Минимальная температура - минимум температуры воздуха на высоте 2 м над землей.
Tmax - Максимальная температура - максимум температуры воздуха на высоте 2 м над землей.
R - Количество осадков - Количество выпавших осадков за период времени, мм. При наведении курсора мыши на число - период времени, за который выпало указанное количество осадков.
R24 - Количество осадков - Количество выпавших осадков за 24 часа, мм.
S - Снежный покров - Высота снежного покрова, см. При наведении курсора мыши на число - состояние снежного покрова и степень покрытия местности в баллах.